Location: Beugnon
(47.6222°N, 3.7850°E)
Time: 17:17:07
(UTC+00:00)

Cosmos 1140 Rocket - Pass Details

Date: 09 April 2020
Orbit: 745 x 767 km, 74.1° (Epoch: 28 May)

Event Time Altitude Azimuth Distance (km) Brightness Sun altitude
Rises 20:04:38 0° 211° (SSW) 3,202 6.7 -16.0°
Reaches altitude 10° 20:07:02 10° 214° (SW) 2,278 6.0 -16.4°
Maximum altitude 20:12:09 62° 295° (WNW) 848 4.0 -17.1°
Drops below altitude 10° 20:17:16 10° 17° (NNE) 2,280 6.2 -17.8°
Sets 20:19:40 0° 21° (NNE) 3,205 6.9 -18.2°
